Address 0x7e12b9c4e16a5b49f1e603454dda694c62cc0eb4 1

Overview

My Name Tag:
Not Available

Txn Hash Method
Block
From
To
Value [Txn Fee]
0x3a4a185d7053865aa7ec2b8b0b9d052f0b3c991512907072796094b4dee2356a0xa8c1b0bc94926772021-06-06 10:28:01176 days 19 hrs ago0x7e12b9c4e16a5b49f1e603454dda694c62cc0eb4OUT 0xd03c8f89de052256ab1d840cbde7e1e43b59a3450 BNB0.00477072
0x1e44e57d2b1553fcff3bd52c9c00b0802ed20acda6f1d4a7bc42105f9ce72ae10x893d242d92055442021-05-27 10:17:23186 days 19 hrs ago0x7e12b9c4e16a5b49f1e603454dda694c62cc0eb4OUT 0xd03c8f89de052256ab1d840cbde7e1e43b59a3450 BNB0.00958807
0xc3c628271f0f82270c76e51af989700ddf8127d7836a1c3ab385c35b5db9f761Approve92055412021-05-27 10:17:14186 days 19 hrs ago0x7e12b9c4e16a5b49f1e603454dda694c62cc0eb4OUT 0x50ba517d64caa5e4fc30b8a010a92fdeed468e9b0 BNB0.00025003
0x7b94b70c0004c357e5b8babdac2303f771c237dfb987c5915c735b7f4c05559d0x893d242d92054672021-05-27 10:13:32186 days 19 hrs ago0x7e12b9c4e16a5b49f1e603454dda694c62cc0eb4OUT 0xd03c8f89de052256ab1d840cbde7e1e43b59a3450 BNB0.00735686
0xc64ec53ef2b53643a180afc434456fc53f9620b9d05e9781dcb7fc9b20eca7a1Approve92054642021-05-27 10:13:23186 days 19 hrs ago0x7e12b9c4e16a5b49f1e603454dda694c62cc0eb4OUT 0x50ba517d64caa5e4fc30b8a010a92fdeed468e9b0 BNB0.00029203
0xea16a9b3fe4429244bda0b1fcaf51daa92f485902052d810f15e79e6cae1f79b0x893d242d92052442021-05-27 10:02:23186 days 20 hrs ago0x7e12b9c4e16a5b49f1e603454dda694c62cc0eb4OUT 0xd03c8f89de052256ab1d840cbde7e1e43b59a3450 BNB0.01028985
0xce1d64d9728156cbb647405854699fe67a0cff49152119837339e4d8ff8c8850Approve92052402021-05-27 10:02:11186 days 20 hrs ago0x7e12b9c4e16a5b49f1e603454dda694c62cc0eb4OUT 0x50ba517d64caa5e4fc30b8a010a92fdeed468e9b0 BNB0.00029203
0xfd6f124b0b3777ddc35c0e99a829b0686e2754f9f50ddd292ae1531d85de9e3d0x893d242d92011492021-05-27 6:37:37186 days 23 hrs ago0x7e12b9c4e16a5b49f1e603454dda694c62cc0eb4OUT 0xd03c8f89de052256ab1d840cbde7e1e43b59a3450 BNB0.00772561
0x7ce1af90d4968bd49076786af9418413663b79a819180ae432986a933d1f9780Approve92011462021-05-27 6:37:28186 days 23 hrs ago0x7e12b9c4e16a5b49f1e603454dda694c62cc0eb4OUT 0x50ba517d64caa5e4fc30b8a010a92fdeed468e9b0 BNB0.00029203
0x2717c148c6cc24dd8e7ad49df1d2c81c11b597ab9db2a0fb3994127247f70eb90x893d242d91987352021-05-27 4:36:55187 days 1 hr ago0x7e12b9c4e16a5b49f1e603454dda694c62cc0eb4OUT 0xd03c8f89de052256ab1d840cbde7e1e43b59a3450 BNB0.00801099
0x948d49bf1308d807ff890bbc84f582abc4b0bed1cc0cf278c49af7ece027301bApprove91987332021-05-27 4:36:49187 days 1 hr ago0x7e12b9c4e16a5b49f1e603454dda694c62cc0eb4OUT 0x50ba517d64caa5e4fc30b8a010a92fdeed468e9b0 BNB0.00025003
0xf1af0efdd4c66cc3c00db20cf3eb9cc93d257602d5c6bff5d7633a44fe53df910x893d242d91979212021-05-27 3:56:13187 days 2 hrs ago0x7e12b9c4e16a5b49f1e603454dda694c62cc0eb4OUT 0xd03c8f89de052256ab1d840cbde7e1e43b59a3450 BNB0.00714708
0xadb4cd77763a8dce58689aa786cbd5baf4ba7572df1b5fc5649eff9bea224468Approve91979182021-05-27 3:56:04187 days 2 hrs ago0x7e12b9c4e16a5b49f1e603454dda694c62cc0eb4OUT 0x50ba517d64caa5e4fc30b8a010a92fdeed468e9b0 BNB0.00029203
0x9e219e79b16f3f1c95abee26f21744815e375ee0971cc3c1cee01011199410650x893d242d91944382021-05-27 1:02:04187 days 5 hrs ago0x7e12b9c4e16a5b49f1e603454dda694c62cc0eb4OUT 0xd03c8f89de052256ab1d840cbde7e1e43b59a3450 BNB0.00833652
0x12a3138ac52b69479009dd96f239d2106528455919b395831eea1c7b723e222eApprove91944352021-05-27 1:01:55187 days 5 hrs ago0x7e12b9c4e16a5b49f1e603454dda694c62cc0eb4OUT 0x50ba517d64caa5e4fc30b8a010a92fdeed468e9b0 BNB0.00029203
0xd67221d0d2e575fb0c2cb18d4f88da63c9d5f796e2c264f0e14f942d056aacec0x893d242d91938642021-05-27 0:33:22187 days 5 hrs ago0x7e12b9c4e16a5b49f1e603454dda694c62cc0eb4OUT 0xd03c8f89de052256ab1d840cbde7e1e43b59a3450 BNB0.00809414
0xced39bbaf115f3cdf068d892557fd3e7dd6a71f917c35cb66e5213e78b2fa264Approve91938622021-05-27 0:33:16187 days 5 hrs ago0x7e12b9c4e16a5b49f1e603454dda694c62cc0eb4OUT 0x50ba517d64caa5e4fc30b8a010a92fdeed468e9b0 BNB0.00029203
0x934c19546dfc09a6de06e002993af431bd915a0521400f2b38d0aa60fe106fb70x893d242d91934742021-05-27 0:13:52187 days 5 hrs ago0x7e12b9c4e16a5b49f1e603454dda694c62cc0eb4OUT 0xd03c8f89de052256ab1d840cbde7e1e43b59a3450 BNB0.00796809
0x4acc6131be634ecc6fab758eee62ad79fc6e178088299a35b556cf5454453badApprove91934702021-05-27 0:13:40187 days 5 hrs ago0x7e12b9c4e16a5b49f1e603454dda694c62cc0eb4OUT 0x50ba517d64caa5e4fc30b8a010a92fdeed468e9b0 BNB0.00025003
0x78cb8007cd3bc25176f146106417ebe1d2af09eb37b828a441b09aebee2aadce0x893d242d91923592021-05-26 23:18:07187 days 6 hrs ago0x7e12b9c4e16a5b49f1e603454dda694c62cc0eb4OUT 0xd03c8f89de052256ab1d840cbde7e1e43b59a3450 BNB0.00692769
0x9fad787f8c9321d399355e27dc029d95e1a00da6f44e68e98f6eff1f0fde7c6aApprove91923562021-05-26 23:17:58187 days 6 hrs ago0x7e12b9c4e16a5b49f1e603454dda694c62cc0eb4OUT 0x50ba517d64caa5e4fc30b8a010a92fdeed468e9b0 BNB0.00029203
0x2ce514802919dbef08ac97499413312ac100f05653b5621ae4f00e7eb540f1ad0x893d242d91855962021-05-26 17:39:58187 days 12 hrs ago0x7e12b9c4e16a5b49f1e603454dda694c62cc0eb4OUT 0xd03c8f89de052256ab1d840cbde7e1e43b59a3450 BNB0.00733274
0x150c92f69e9fa3bb7bc44dbab7ef505ef04dc54d3ddddbfcd8310e79f1f832ccApprove91855942021-05-26 17:39:52187 days 12 hrs ago0x7e12b9c4e16a5b49f1e603454dda694c62cc0eb4OUT 0x50ba517d64caa5e4fc30b8a010a92fdeed468e9b0 BNB0.00029203
0xb6ad8b24c3772410f10f690741bd50584f8ab8ee36855e10e0ee92edabb9c4ff0x893d242d91839292021-05-26 16:16:37187 days 13 hrs ago0x7e12b9c4e16a5b49f1e603454dda694c62cc0eb4OUT 0xd03c8f89de052256ab1d840cbde7e1e43b59a3450 BNB0.00779412
0x566057782c41161d2eac0edfeb2f684c49c8c7e97ec2796a17364213ffc25eacApprove91839262021-05-26 16:16:28187 days 13 hrs ago0x7e12b9c4e16a5b49f1e603454dda694c62cc0eb4OUT 0x50ba517d64caa5e4fc30b8a010a92fdeed468e9b0 BNB0.00029203
[ Download CSV Export 
Parent Txn Hash Block From To Value
Loading

Contract Name:
0 BNB

Compiler Version
0

Optimization Enabled:
0 BNB

Other Settings:
-NA-
Block Transaction Gas Used Reward
Age Block Fee Address BC Fee Address Voting Power Jailed Incoming
Block Uncle Number Difficulty Gas Used Reward
Loading